This demonstration page uses our WeatherBlox Daily Observations layout. Learn more.

36.17497, -115.13722

Hourly Observations for November 27, 2018

Temp ( °F °C ) Dew Point ( °F °C ) Humidity (%) Winds ( mph kmh ) Pressure ( in mb ) Visibility ( mi km ) Precip ( " mm )
12:53 am 00:53 Clear 44 6.7 15 -9.4 31 31 NW 7 11 30.24 1024 10 16.09344 0 0
1:53 am 01:53 Clear 44 6.7 15 -9.4 31 31 WNW 3 6 30.24 1024 10 16.09344 0 0
2:53 am 02:53 Clear 42 5.6 15 -9.4 33 33 WNW 5 7 30.21 1023 10 16.09344 0 0
3:53 am 03:53 Clear 42 5.6 15 -9.4 33 33 ESE 3 6 30.21 1023 10 16.09344 0 0
4:53 am 04:53 Clear 42 5.6 16 -8.9 35 35 NE 3 6 30.21 1023 10 16.09344 0 0
5:53 am 05:53 Clear 42 5.6 15 -9.4 33 33 WNW 6 9 30.24 1024 10 16.09344 0 0
6:53 am 06:53 Sunny 42 5.6 15 -9.4 33 33 NNW 5 7 30.24 1024 10 16.09344 0 0
7:53 am 07:53 Sunny 46 7.8 13 -10.6 26 26 Calm 30.24 1024 10 16.09344 0 0
8:53 am 08:53 Sunny 50 10 14 -10 24 24 Calm 30.24 1024 10 16.09344 0 0
9:53 am 09:53 Sunny 53 11.7 12 -11.1 19 19 SE 5 7 30.21 1023 10 16.09344 0 0
10:53 am 10:53 Sunny 56 13.3 11 -11.7 17 17 N 3 6 30.18 1022 10 16.09344 0 0
11:53 am 11:53 Sunny 57 13.9 11 -11.7 16 16 ESE 7 11 30.12 1020 10 16.09344 0 0
12:53 pm 12:53 Sunny 59 15 12 -11.1 15 15 SSE 6 9 30.09 1019 10 16.09344 0 0
1:53 pm 13:53 Sunny 60 15.6 11 -11.7 14 14 SE 5 7 30.06 1018 10 16.09344 0 0
2:53 pm 14:53 Sunny 60 15.6 12 -11.1 15 15 Calm 30.06 1018 10 16.09344 0 0
3:53 pm 15:53 Sunny 59 15 11 -11.7 15 15 ESE 5 7 30.03 1017 10 16.09344 0 0
4:53 pm 16:53 Clear 59 15 12 -11.1 15 15 Calm 30.03 1017 10 16.09344 0 0
5:53 pm 17:53 Clear 55 12.8 15 -9.4 20 20 NW 3 6 30.03 1017 10 16.09344 0 0
6:53 pm 18:53 Clear 54 12.2 14 -10 20 20 NW 5 7 30.06 1018 10 16.09344 0 0
7:53 pm 19:53 Clear 49 9.4 16 -8.9 27 27 NNW 6 9 30.06 1018 10 16.09344 0 0
8:53 pm 20:53 Clear 50 10 17 -8.3 27 27 WNW 8 13 30.06 1018 10 16.09344 0 0
9:53 pm 21:53 Clear 48 8.9 18 -7.8 30 30 WNW 6 9 30.03 1017 10 16.09344 0 0
10:53 pm 22:53 Clear 47 8.3 18 -7.8 31 31 WNW 5 7 30.03 1017 10 16.09344 0 0
11:53 pm 23:53 Clear 46 7.8 17 -8.3 31 31 NW 3 6 30 1016 10 16.09344 0 0

Powered by AerisWeather